Location: Unspecified
(0.0000°N, 0.0000°E)
Time: 09:22:16
(UTC+01:00)

ISS - Visible Passes

Search period start: 31 October 2014 00:00
Search period end: 10 November 2014 00:00
Orbit: 412 x 417 km, 51.6° (Epoch: 30 October)

Date Brightness Start Highest point End Pass type
(mag) Time Alt. Az. Time Alt. Az. Time Alt. Az.
31 Oct -2.4 19:17:16 10° N 19:20:12 29° NE 19:23:08 10° ESE visible
01 Nov -0.5 20:05:02 10° WNW 20:07:32 20° SW 20:10:03 10° S visible
02 Nov -2.2 19:15:08 10° NW 19:18:21 48° SW 19:21:35 10° SSE visible
04 Nov -1.5 06:01:31 10° SSW 06:04:35 35° SE 06:07:38 10° ENE visible
04 Nov 0.4 19:15:29 10° WSW 19:16:23 11° SW 19:17:17 10° SW visible
05 Nov -0.1 05:13:16 10° SSE 05:15:18 15° SE 05:17:19 10° E visible
06 Nov -2.8 05:59:20 10° SW 06:02:27 38° NW 06:05:32 10° NNE visible
07 Nov -2.9 05:13:38 57° ENE 05:13:38 57° ENE 05:16:23 10° NE visible
